| time (UTC) | temp F | wind direction | speed knots | gust knots | rain 1hr in | rain 24hr in | rain mn in | humidity % | barometer mb |
| 20260507052519 | 49 | 26 | 4.3 | 7.8 | 0.00 | 0.00 | 0.00 | 80 | 1010.9 |
| 20260507052019 | 49 | 27 | 4.3 | 10.4 | 0.00 | 0.00 | 0.00 | 80 | 1010.9 |
| 20260507051519 | 49 | 33 | 4.3 | 8.7 | 0.00 | 0.00 | 0.00 | 80 | 1010.9 |
| 20260507051020 | 49 | 12 | 4.3 | 7.8 | 0.00 | 0.00 | 0.00 | 80 | 1011.0 |
| 20260507050519 | 49 | 16 | 4.3 | 7.0 | 0.00 | 0.00 | 0.00 | 80 | 1011.0 |
| 20260507050019 | 49 | 25 | 4.3 | 7.8 | 0.00 | 0.00 | 0.00 | 80 | 1011.0 |
| 20260507045018 | 49 | 30 | 4.3 | 8.7 | 0.00 | 0.00 | 0.00 | 81 | 1010.8 |
| 20260507044518 | 49 | 12 | 4.3 | 7.8 | 0.00 | 0.00 | 0.00 | 80 | 1010.8 |
| 20260507044018 | 49 | 12 | 2.6 | 6.1 | 0.00 | 0.00 | 0.00 | 80 | 1010.9 |
| 20260507043518 | 49 | 14 | 3.5 | 7.0 | 0.00 | 0.00 | 0.00 | 80 | 1010.9 |
| 20260507043019 | 49 | 8 | 2.6 | 6.1 | 0.00 | 0.00 | 0.00 | 80 | 1011.0 |
| 20260507042518 | 49 | 3 | 2.6 | 7.0 | 0.00 | 0.00 | 0.00 | 81 | 1010.8 |
| 20260507041518 | 49 | 10 | 2.6 | 6.1 | 0.00 | 0.00 | 0.00 | 80 | 1010.9 |
| 20260507041018 | 49 | 10 | 4.3 | 7.0 | 0.00 | 0.00 | 0.00 | 80 | 1011.0 |
| 20260507040019 | 49 | 10 | 4.3 | 7.8 | 0.00 | 0.00 | 0.00 | 79 | 1011.0 |
| 20260507035519 | 49 | 6 | 2.6 | 6.1 | 0.00 | 0.00 | 0.00 | 79 | 1011.1 |
| 20260507035008 | 49 | 15 | 2.6 | 5.2 | 0.00 | 0.00 | 0.00 | 79 | 1011.1 |
| 20260507034519 | 49 | 21 | 2.6 | 7.0 | 0.00 | 0.00 | 0.00 | 79 | 1011.0 |
| 20260507034019 | 49 | 18 | 2.6 | 6.1 | 0.00 | 0.00 | 0.00 | 79 | 1011.0 |
| 20260507033519 | 49 | 29 | 2.6 | 7.0 | 0.00 | 0.00 | 0.00 | 79 | 1010.9 |
| 20260507033019 | 49 | 17 | 4.3 | 7.8 | 0.00 | 0.00 | 0.00 | 79 | 1011.0 |
| 20260507032519 | 49 | 12 | 4.3 | 7.8 | 0.00 | 0.00 | 0.00 | 78 | 1011.0 |
| 20260507032019 | 49 | 13 | 4.3 | 7.0 | 0.00 | 0.00 | 0.00 | 79 | 1011.0 |
| 20260507031519 | 49 | 19 | 3.5 | 7.8 | 0.00 | 0.00 | 0.00 | 79 | 1011.0 |
| 20260507031019 | 49 | 16 | 4.3 | 8.7 | 0.00 | 0.00 | 0.00 | 79 | 1011.0 |
| 20260507030519 | 49 | 8 | 5.2 | 7.8 | 0.00 | 0.00 | 0.00 | 79 | 1010.9 |
| 20260507025518 | 49 | 0 | 4.3 | 7.0 | 0.00 | 0.00 | 0.00 | 80 | 1011.0 |
| 20260507024519 | 49 | 11 | 1.7 | 4.3 | 0.00 | 0.00 | 0.00 | 80 | 1010.9 |
| 20260507024019 | 49 | 3 | 3.5 | 5.2 | 0.00 | 0.00 | 0.00 | 79 | 1010.9 |
| 20260507023519 | 49 | 0 | 2.6 | 4.3 | 0.00 | 0.00 | 0.00 | 79 | 1010.8 |
| 20260507023019 | 49 | 351 | 2.6 | 5.2 | 0.00 | 0.00 | 0.00 | 79 | 1010.9 |
| 20260507022019 | 48 | 0 | 3.5 | 6.1 | 0.00 | 0.00 | 0.00 | 79 | 1011.0 |
| 20260507021018 | 49 | 351 | 3.5 | 6.1 | 0.00 | 0.00 | 0.00 | 78 | 1011.0 |
| 20260507020518 | 49 | 1 | 4.3 | 6.1 | 0.00 | 0.00 | 0.00 | 78 | 1011.0 |
| 20260507020019 | 49 | 0 | 1.7 | 2.6 | 0.00 | 0.00 | 0.00 | 77 | 1011.0 |
| 20260507015518 | 49 | 351 | 2.6 | 5.2 | 0.00 | 0.00 | 0.00 | 77 | 1011.0 |
| 20260507015018 | 49 | 2 | 1.7 | 2.6 | 0.00 | 0.00 | 0.00 | 77 | 1010.9 |
| 20260507014019 | 49 | 5 | 0.9 | 2.6 | 0.00 | 0.00 | 0.00 | 76 | 1011.0 |
| 20260507013519 | 50 | 6 | 1.7 | 2.6 | 0.00 | 0.00 | 0.00 | 74 | 1011.0 |
| 20260507013018 | 50 | 16 | 0.0 | 0.0 | 0.00 | 0.00 | 0.00 | 73 | 1011.1 |
| 20260507012507 | 50 | 16 | 0.9 | 2.6 | 0.00 | 0.00 | 0.00 | 72 | 1011.1 |
| 20260507012018 | 51 | 14 | 1.7 | 2.6 | 0.00 | 0.00 | 0.00 | 71 | 1011.0 |
| 20260507011519 | 51 | 27 | 1.7 | 2.6 | 0.00 | 0.00 | 0.00 | 71 | 1011.0 |
| 20260507011008 | 51 | 27 | 1.7 | 4.3 | 0.00 | 0.00 | 0.00 | 70 | 1010.9 |
| 20260507010520 | 51 | 26 | 1.7 | 5.2 | 0.00 | 0.00 | 0.00 | 70 | 1011.0 |
| 20260507010007 | 51 | 36 | 0.9 | 2.6 | 0.00 | 0.00 | 0.00 | 69 | 1011.0 |
| 20260507005507 | 52 | 21 | 0.9 | 2.6 | 0.00 | 0.00 | 0.00 | 68 | 1011.1 |
| 20260507005007 | 52 | 30 | 1.7 | 2.6 | 0.00 | 0.00 | 0.00 | 68 | 1011.1 |
| 20260507004507 | 52 | 46 | 1.7 | 5.2 | 0.00 | 0.00 | 0.00 | 67 | 1011.1 |
| 20260507004007 | 52 | 46 | 2.6 | 5.2 | 0.00 | 0.00 | 0.00 | 67 | 1011.1 |
| 20260507003507 | 52 | 51 | 3.5 | 7.8 | 0.00 | 0.00 | 0.00 | 67 | 1011.2 |
| 20260507003007 | 52 | 47 | 4.3 | 8.7 | 0.00 | 0.00 | 0.00 | 66 | 1011.1 |
| 20260507002507 | 52 | 63 | 4.3 | 7.8 | 0.00 | 0.00 | 0.00 | 67 | 1011.3 |
| 20260507002007 | 52 | 57 | 2.6 | 7.8 | 0.00 | 0.00 | 0.00 | 66 | 1011.3 |
| 20260507001508 | 52 | 45 | 4.3 | 8.7 | 0.00 | 0.00 | 0.00 | 66 | 1011.3 |
| 20260507001008 | 52 | 30 | 4.3 | 10.4 | 0.00 | 0.00 | 0.00 | 66 | 1011.2 |
| 20260507000508 | 53 | 53 | 4.3 | 7.8 | 0.00 | 0.00 | 0.00 | 66 | 1011.2 |
| 20260506235510 | 53 | 56 | 6.1 | 10.4 | 0.00 | 0.00 | 0.00 | 65 | 1011.2 |
| 20260506235007 | 53 | 55 | 5.2 | 10.4 | 0.00 | 0.00 | 0.00 | 64 | 1011.0 |
| 20260506234507 | 53 | 45 | 6.1 | 13.0 | 0.00 | 0.00 | 0.00 | 64 | 1010.9 |
| 20260506234007 | 53 | 31 | 5.2 | 8.7 | 0.00 | 0.00 | 0.00 | 64 | 1010.8 |
| 20260506233507 | 53 | 29 | 5.2 | 11.3 | 0.00 | 0.00 | 0.00 | 64 | 1010.9 |
| 20260506233007 | 53 | 35 | 4.3 | 10.4 | 0.00 | 0.00 | 0.00 | 63 | 1010.9 |
| 20260506232507 | 53 | 34 | 4.3 | 10.4 | 0.00 | 0.00 | 0.00 | 63 | 1010.9 |
| 20260506232007 | 53 | 35 | 4.3 | 10.4 | 0.00 | 0.00 | 0.00 | 62 | 1010.9 |
| 20260506231508 | 53 | 36 | 5.2 | 10.4 | 0.00 | 0.00 | 0.00 | 63 | 1010.9 |
| 20260506230508 | 51 | 37 | 1.7 | 5.2 | 0.00 | 0.00 | 0.00 | 65 | 1010.9 |
| 20260506230007 | 51 | 11 | 1.7 | 5.2 | 0.00 | 0.00 | 0.00 | 65 | 1010.9 |
| 20260506225507 | 51 | 355 | 4.3 | 5.2 | 0.00 | 0.00 | 0.00 | 63 | 1011.0 |
| 20260506225007 | 51 | 356 | 4.3 | 6.1 | 0.00 | 0.00 | 0.00 | 62 | 1011.0 |
| 20260506224507 | 51 | 352 | 4.3 | 7.0 | 0.00 | 0.00 | 0.00 | 60 | 1010.9 |
| 20260506224007 | 51 | 357 | 4.3 | 7.8 | 0.00 | 0.00 | 0.00 | 58 | 1010.8 |
| 20260506223508 | 52 | 14 | 3.5 | 6.1 | 0.00 | 0.00 | 0.00 | 57 | 1010.8 |
| 20260506222507 | 52 | 16 | 4.3 | 6.1 | 0.00 | 0.00 | 0.00 | 55 | 1010.9 |
| 20260506222007 | 52 | 15 | 4.3 | 6.1 | 0.00 | 0.00 | 0.00 | 55 | 1010.9 |
| 20260506221508 | 52 | 14 | 3.5 | 6.1 | 0.00 | 0.00 | 0.00 | 55 | 1010.9 |
| 20260506221007 | 51 | 30 | 2.6 | 4.3 | 0.00 | 0.00 | 0.00 | 55 | 1010.9 |
| 20260506220508 | 51 | 14 | 1.7 | 4.3 | 0.00 | 0.00 | 0.00 | 57 | 1010.9 |
| 20260506220007 | 51 | 8 | 2.6 | 4.3 | 0.00 | 0.00 | 0.00 | 56 | 1010.9 |
| 20260506215507 | 51 | 0 | 2.6 | 4.3 | 0.00 | 0.00 | 0.00 | 56 | 1010.9 |
| 20260506215007 | 51 | 7 | 2.6 | 4.3 | 0.00 | 0.00 | 0.00 | 56 | 1010.8 |
| 20260506214507 | 51 | 9 | 2.6 | 2.6 | 0.00 | 0.00 | 0.00 | 56 | 1010.8 |
| 20260506214007 | 51 | 7 | 1.7 | 2.6 | 0.00 | 0.00 | 0.00 | 57 | 1010.9 |
| 20260506213508 | 51 | 3 | 2.6 | 4.3 | 0.00 | 0.00 | 0.00 | 56 | 1010.8 |
| 20260506213007 | 52 | 8 | 2.6 | 2.6 | 0.00 | 0.00 | 0.00 | 55 | 1010.8 |
| 20260506212008 | 53 | 25 | 1.7 | 2.6 | 0.00 | 0.00 | 0.00 | 53 | 1010.7 |
| 20260506211507 | 53 | 17 | 1.7 | 2.6 | 0.00 | 0.00 | 0.00 | 52 | 1010.7 |
| 20260506211007 | 53 | 15 | 1.7 | 2.6 | 0.00 | 0.00 | 0.00 | 51 | 1010.6 |
| 20260506210507 | 54 | 15 | 1.7 | 2.6 | 0.00 | 0.00 | 0.00 | 49 | 1010.7 |
| 20260506205507 | 54 | 15 | 1.7 | 2.6 | 0.00 | 0.00 | 0.00 | 49 | 1010.8 |
| 20260506204508 | 54 | 15 | 1.7 | 2.6 | 0.00 | 0.00 | 0.00 | 48 | 1010.8 |
| 20260506203508 | 54 | 15 | 1.7 | 2.6 | 0.00 | 0.00 | 0.00 | 49 | 1010.8 |
| 20260506203007 | 55 | 15 | 1.7 | 2.6 | 0.00 | 0.00 | 0.00 | 50 | 1010.8 |
| 20260506202007 | 56 | 15 | 1.7 | 2.6 | 0.00 | 0.00 | 0.00 | 47 | 1010.6 |
| 20260506201507 | 56 | 14 | 1.7 | 2.6 | 0.00 | 0.00 | 0.00 | 46 | 1010.7 |
| 20260506201007 | 56 | 5 | 2.6 | 2.6 | 0.00 | 0.00 | 0.00 | 45 | 1010.6 |
| 20260506200507 | 56 | 5 | 2.6 | 2.6 | 0.00 | 0.00 | 0.00 | 45 | 1010.5 |
| 20260506195507 | 56 | 12 | 1.7 | 2.6 | 0.00 | 0.00 | 0.00 | 46 | 1010.4 |
| 20260506195007 | 56 | 22 | 1.7 | 2.6 | 0.00 | 0.00 | 0.00 | 50 | 1010.4 |
| 20260506194507 | 56 | 22 | 1.7 | 2.6 | 0.00 | 0.00 | 0.00 | 50 | 1010.4 |
| 20260506193507 | 58 | 22 | 1.7 | 2.6 | 0.00 | 0.00 | 0.00 | 48 | 1010.3 |
| 20260506193007 | 59 | 22 | 1.7 | 2.6 | 0.00 | 0.00 | 0.00 | 45 | 1010.3 |
| 20260506192007 | 62 | 355 | 0.0 | 0.0 | 0.00 | 0.00 | 0.00 | 34 | 1010.3 |
| 20260506191007 | 62 | 355 | 0.0 | 0.0 | 0.00 | 0.00 | 0.00 | 35 | 1010.3 |
| 20260506190507 | 63 | 355 | 0.0 | 0.0 | 0.00 | 0.00 | 0.00 | 32 | 1010.3 |
| 20260506190008 | 63 | 355 | 0.0 | 0.0 | 0.00 | 0.00 | 0.00 | 33 | 1010.3 |
| 20260506185507 | 63 | 355 | 0.0 | 0.0 | 0.00 | 0.00 | 0.00 | 33 | 1010.3 |
| 20260506185006 | 64 | 355 | 0.0 | 0.0 | 0.00 | 0.00 | 0.00 | 37 | 1010.3 |
| 20260506184507 | 64 | 355 | 0.0 | 0.9 | 0.00 | 0.00 | 0.00 | 35 | 1010.3 |
| 20260506184007 | 64 | 355 | 0.9 | 1.7 | 0.00 | 0.00 | 0.00 | 36 | 1010.2 |
| 20260506183507 | 65 | 355 | 0.9 | 1.7 | 0.00 | 0.00 | 0.00 | 36 | 1010.2 |
| 20260506183008 | 65 | 355 | 1.7 | 2.6 | 0.00 | 0.00 | 0.00 | 34 | 1010.2 |
| 20260506182007 | 65 | 355 | 1.7 | 2.6 | 0.00 | 0.00 | 0.00 | 30 | 1010.1 |
| 20260506181507 | 65 | 358 | 2.6 | 2.6 | 0.00 | 0.00 | 0.00 | 31 | 1010.1 |
| 20260506181007 | 66 | 5 | 1.7 | 2.6 | 0.00 | 0.00 | 0.00 | 31 | 1010.1 |
| 20260506180008 | 67 | 269 | 0.0 | 1.7 | 0.00 | 0.00 | 0.00 | 31 | 1010.1 |
| 20260506175506 | 67 | 269 | 1.7 | 2.6 | 0.00 | 0.00 | 0.00 | 28 | 1010.2 |
| 20260506175007 | 67 | 250 | 0.9 | 2.6 | 0.00 | 0.00 | 0.00 | 29 | 1010.1 |
| 20260506174507 | 66 | 0 | 0.9 | 2.6 | 0.00 | 0.00 | 0.00 | 30 | 1010.2 |
| 20260506174007 | 66 | 292 | 1.7 | 2.6 | 0.00 | 0.00 | 0.00 | 29 | 1010.2 |
| 20260506173507 | 66 | 9 | 1.7 | 2.6 | 0.00 | 0.00 | 0.00 | 29 | 1010.3 |
| 20260506173007 | 67 | 299 | 0.9 | 2.6 | 0.00 | 0.00 | 0.00 | 30 | 1010.4 |
| 20260506172507 | 66 | 313 | 1.7 | 5.2 | 0.00 | 0.00 | 0.00 | 29 | 1010.4 |
| 20260506172007 | 67 | 292 | 2.6 | 2.6 | 0.00 | 0.00 | 0.00 | 29 | 1010.4 |
| 20260506171507 | 67 | 282 | 0.9 | 2.6 | 0.00 | 0.00 | 0.00 | 29 | 1010.3 |
| 20260506171007 | 67 | 261 | 1.7 | 5.2 | 0.00 | 0.00 | 0.00 | 29 | 1010.4 |
| 20260506170506 | 67 | 286 | 1.7 | 2.6 | 0.00 | 0.00 | 0.00 | 30 | 1010.4 |
| 20260506165506 | 67 | 234 | 1.7 | 2.6 | 0.00 | 0.00 | 0.00 | 29 | 1010.5 |
| 20260506165007 | 67 | 231 | 1.7 | 5.2 | 0.00 | 0.00 | 0.00 | 29 | 1010.5 |
| 20260506164507 | 66 | 239 | 0.9 | 1.7 | 0.00 | 0.00 | 0.00 | 29 | 1010.5 |
| 20260506163006 | 66 | 122 | 1.7 | 2.6 | 0.00 | 0.00 | 0.00 | 30 | 1010.6 |
| 20260506162506 | 66 | 140 | 3.5 | 7.0 | 0.00 | 0.00 | 0.00 | 30 | 1010.6 |
| 20260506162007 | 66 | 116 | 1.7 | 7.0 | 0.00 | 0.00 | 0.00 | 30 | 1010.6 |
| 20260506161507 | 66 | 147 | 0.9 | 6.1 | 0.00 | 0.00 | 0.00 | 30 | 1010.6 |
| 20260506161006 | 66 | 162 | 2.6 | 7.0 | 0.00 | 0.00 | 0.00 | 30 | 1010.6 |
| 20260506160506 | 66 | 136 | 1.7 | 4.3 | 0.00 | 0.00 | 0.00 | 30 | 1010.6 |
| 20260506155507 | 65 | 133 | 2.6 | 7.0 | 0.00 | 0.00 | 0.00 | 31 | 1010.5 |
| 20260506155006 | 65 | 101 | 2.6 | 7.0 | 0.00 | 0.00 | 0.00 | 31 | 1010.6 |
| 20260506153506 | 67 | 241 | 1.7 | 2.6 | 0.00 | 0.00 | 0.00 | 31 | 1010.8 |
| 20260506153007 | 65 | 328 | 1.7 | 4.3 | 0.00 | 0.00 | 0.00 | 33 | 1011.0 |
| 20260506152506 | 65 | 293 | 2.6 | 7.0 | 0.00 | 0.00 | 0.00 | 33 | 1011.0 |
| 20260506152006 | 66 | 338 | 1.7 | 5.2 | 0.00 | 0.00 | 0.00 | 30 | 1011.0 |
| 20260506151506 | 66 | 301 | 2.6 | 4.3 | 0.00 | 0.00 | 0.00 | 32 | 1011.0 |
| 20260506151007 | 65 | 251 | 0.9 | 4.3 | 0.00 | 0.00 | 0.00 | 30 | 1011.1 |
| 20260506150012 | 65 | 320 | 1.7 | 2.6 | 0.00 | 0.00 | 0.00 | 33 | 1011.3 |
| 20260506145507 | 64 | 213 | 2.6 | 4.3 | 0.00 | 0.00 | 0.00 | 34 | 1011.4 |
| 20260506145006 | 63 | 131 | 0.9 | 2.6 | 0.00 | 0.00 | 0.00 | 34 | 1011.5 |
| 20260506144507 | 64 | 209 | 1.7 | 2.6 | 0.00 | 0.00 | 0.00 | 34 | 1011.6 |
| 20260506143507 | 64 | 211 | 1.7 | 7.0 | 0.00 | 0.00 | 0.00 | 35 | 1011.6 |
| 20260506143007 | 63 | 190 | 0.9 | 5.2 | 0.00 | 0.00 | 0.00 | 36 | 1011.6 |
| 20260506142506 | 64 | 141 | 1.7 | 5.2 | 0.00 | 0.00 | 0.00 | 35 | 1011.8 |
| 20260506142006 | 64 | 174 | 1.7 | 4.3 | 0.00 | 0.00 | 0.00 | 36 | 1011.8 |
| 20260506141507 | 64 | 132 | 1.7 | 5.2 | 0.00 | 0.00 | 0.00 | 35 | 1011.9 |
| 20260506141006 | 65 | 195 | 2.6 | 6.1 | 0.00 | 0.00 | 0.00 | 35 | 1011.9 |
| 20260506140507 | 65 | 42 | 0.9 | 7.0 | 0.00 | 0.00 | 0.00 | 35 | 1011.9 |
| 20260506135506 | 64 | 14 | 1.7 | 6.1 | 0.00 | 0.00 | 0.00 | 38 | 1011.9 |
| 20260506135006 | 63 | 12 | 2.6 | 7.8 | 0.00 | 0.00 | 0.00 | 39 | 1012.0 |
| 20260506134506 | 63 | 325 | 5.2 | 8.7 | 0.00 | 0.00 | 0.00 | 39 | 1012.0 |
| 20260506134007 | 64 | 24 | 2.6 | 6.1 | 0.00 | 0.00 | 0.00 | 37 | 1012.1 |
| 20260506133007 | 63 | 203 | 4.3 | 6.1 | 0.00 | 0.00 | 0.00 | 36 | 1012.3 |
| 20260506132508 | 64 | 189 | 2.6 | 5.2 | 0.00 | 0.00 | 0.00 | 36 | 1012.3 |
| 20260506131506 | 64 | 140 | 1.7 | 7.0 | 0.00 | 0.00 | 0.00 | 36 | 1012.5 |
| 20260506131006 | 63 | 157 | 2.6 | 5.2 | 0.00 | 0.00 | 0.00 | 37 | 1012.5 |
| 20260506130506 | 63 | 60 | 3.5 | 7.0 | 0.00 | 0.00 | 0.00 | 37 | 1012.5 |
| 20260506130007 | 63 | 65 | 3.5 | 5.2 | 0.00 | 0.00 | 0.00 | 38 | 1012.5 |
| 20260506125007 | 62 | 61 | 4.3 | 8.7 | 0.00 | 0.00 | 0.00 | 37 | 1012.7 |
| 20260506124507 | 63 | 87 | 2.6 | 6.1 | 0.00 | 0.00 | 0.00 | 38 | 1012.8 |
| 20260506123507 | 62 | 56 | 1.7 | 4.3 | 0.00 | 0.00 | 0.00 | 39 | 1012.7 |
| 20260506123007 | 63 | 226 | 2.6 | 6.1 | 0.00 | 0.00 | 0.00 | 38 | 1012.8 |
| 20260506122507 | 63 | 285 | 4.3 | 6.1 | 0.00 | 0.00 | 0.00 | 42 | 1012.8 |
| 20260506122007 | 62 | 289 | 1.7 | 2.6 | 0.00 | 0.00 | 0.00 | 40 | 1012.9 |
| 20260506121006 | 61 | 266 | 1.7 | 7.0 | 0.00 | 0.00 | 0.00 | 42 | 1013.2 |
| 20260506120506 | 61 | 324 | 5.2 | 8.7 | 0.00 | 0.00 | 0.00 | 42 | 1013.2 |
| 20260506120007 | 61 | 114 | 2.6 | 5.2 | 0.00 | 0.00 | 0.00 | 42 | 1013.1 |
| 20260506115506 | 62 | 20 | 2.6 | 5.2 | 0.00 | 0.00 | 0.00 | 44 | 1013.2 |
| 20260506115007 | 61 | 155 | 2.6 | 6.1 | 0.00 | 0.00 | 0.00 | 43 | 1013.2 |
| 20260506114507 | 60 | 116 | 4.3 | 7.8 | 0.00 | 0.00 | 0.00 | 43 | 1013.2 |
| 20260506113506 | 60 | 19 | 4.3 | 7.0 | 0.00 | 0.00 | 0.00 | 44 | 1013.3 |
| 20260506113007 | 61 | 68 | 4.3 | 7.0 | 0.00 | 0.00 | 0.00 | 44 | 1013.3 |
| 20260506112507 | 60 | 233 | 0.9 | 4.3 | 0.00 | 0.00 | 0.00 | 43 | 1013.4 |
| 20260506111507 | 60 | 102 | 3.5 | 7.8 | 0.00 | 0.00 | 0.00 | 44 | 1013.5 |
| 20260506111007 | 60 | 112 | 4.3 | 8.7 | 0.00 | 0.00 | 0.00 | 44 | 1013.5 |
| 20260506110007 | 60 | 11 | 0.9 | 4.3 | 0.00 | 0.00 | 0.00 | 47 | 1013.5 |
| 20260506105506 | 59 | 14 | 0.9 | 5.2 | 0.00 | 0.00 | 0.00 | 47 | 1013.6 |
| 20260506105006 | 59 | 23 | 2.6 | 8.7 | 0.00 | 0.00 | 0.00 | 47 | 1013.6 |
| 20260506104006 | 58 | 292 | 2.6 | 5.2 | 0.00 | 0.00 | 0.00 | 46 | 1013.4 |
| 20260506103506 | 58 | 337 | 1.7 | 5.2 | 0.00 | 0.00 | 0.00 | 45 | 1013.5 |
| 20260506103006 | 58 | 69 | 4.3 | 8.7 | 0.00 | 0.00 | 0.00 | 48 | 1013.6 |
| 20260506102507 | 57 | 52 | 2.6 | 8.7 | 0.00 | 0.00 | 0.00 | 52 | 1013.6 |
| 20260506102008 | 57 | 333 | 5.2 | 7.8 | 0.00 | 0.00 | 0.00 | 51 | 1013.7 |
| 20260506101008 | 57 | 27 | 2.6 | 7.0 | 0.00 | 0.00 | 0.00 | 51 | 1013.9 |
| 20260506100508 | 57 | 11 | 2.6 | 6.1 | 0.00 | 0.00 | 0.00 | 52 | 1013.9 |
| 20260506100008 | 57 | 154 | 4.3 | 7.0 | 0.00 | 0.00 | 0.00 | 51 | 1013.9 |
| 20260506095508 | 57 | 356 | 1.7 | 4.3 | 0.00 | 0.00 | 0.00 | 52 | 1013.9 |
| 20260506095008 | 57 | 9 | 2.6 | 7.8 | 0.00 | 0.00 | 0.00 | 52 | 1013.9 |
| 20260506094008 | 57 | 64 | 1.7 | 5.2 | 0.00 | 0.00 | 0.00 | 53 | 1014.0 |
| 20260506093508 | 56 | 45 | 1.7 | 10.4 | 0.00 | 0.00 | 0.00 | 54 | 1013.9 |
| 20260506093008 | 56 | 133 | 5.2 | 7.8 | 0.00 | 0.00 | 0.00 | 53 | 1013.9 |
| 20260506092508 | 56 | 11 | 1.7 | 5.2 | 0.00 | 0.00 | 0.00 | 56 | 1013.9 |
| 20260506092008 | 56 | 148 | 2.6 | 6.1 | 0.00 | 0.00 | 0.00 | 53 | 1013.9 |
| 20260506091508 | 56 | 64 | 3.5 | 7.0 | 0.00 | 0.00 | 0.00 | 54 | 1013.9 |
| 20260506091008 | 55 | 43 | 2.6 | 6.1 | 0.00 | 0.00 | 0.00 | 54 | 1014.0 |
| 20260506090008 | 55 | 104 | 4.3 | 7.0 | 0.00 | 0.00 | 0.00 | 57 | 1014.1 |
| 20260506085508 | 55 | 107 | 6.1 | 7.8 | 0.00 | 0.00 | 0.00 | 56 | 1014.1 |
| 20260506085008 | 55 | 68 | 3.5 | 7.8 | 0.00 | 0.00 | 0.00 | 59 | 1014.0 |
| 20260506084508 | 55 | 123 | 4.3 | 8.7 | 0.00 | 0.00 | 0.00 | 59 | 1013.9 |
| 20260506083508 | 54 | 62 | 2.6 | 8.7 | 0.00 | 0.00 | 0.00 | 60 | 1013.9 |
| 20260506083008 | 54 | 60 | 3.5 | 6.1 | 0.00 | 0.00 | 0.00 | 60 | 1014.0 |
| 20260506082508 | 53 | 104 | 5.2 | 8.7 | 0.00 | 0.00 | 0.00 | 62 | 1013.9 |
| 20260506080508 | 52 | 58 | 1.7 | 4.3 | 0.00 | 0.00 | 0.00 | 67 | 1014.1 |
| 20260506073008 | 50 | 96 | 2.6 | 2.6 | 0.00 | 0.00 | 0.00 | 69 | 1014.0 |
| 20260506072507 | 50 | 41 | 1.7 | 4.3 | 0.00 | 0.00 | 0.00 | 70 | 1014.1 |
| 20260506072008 | 50 | 26 | 2.6 | 6.1 | 0.00 | 0.00 | 0.00 | 70 | 1014.0 |
| 20260506071508 | 49 | 47 | 2.6 | 7.0 | 0.00 | 0.00 | 0.00 | 72 | 1014.0 |
| 20260506071008 | 49 | 11 | 3.5 | 7.8 | 0.00 | 0.00 | 0.00 | 73 | 1014.0 |
| 20260506070508 | 48 | 41 | 2.6 | 7.0 | 0.00 | 0.00 | 0.00 | 74 | 1014.0 |
| 20260506062508 | 46 | 10 | 2.6 | 4.3 | 0.00 | 0.00 | 0.00 | 79 | 1013.6 |
| 20260506062008 | 45 | 14 | 2.6 | 6.1 | 0.00 | 0.00 | 0.00 | 79 | 1013.6 |
| 20260506061508 | 45 | 5 | 3.5 | 4.3 | 0.00 | 0.00 | 0.00 | 79 | 1013.6 |
| 20260506061007 | 45 | 350 | 2.6 | 4.3 | 0.00 | 0.00 | 0.00 | 79 | 1013.6 |
| 20260506060508 | 45 | 15 | 2.6 | 6.1 | 0.00 | 0.00 | 0.00 | 78 | 1013.6 |